Tracking 25195 objects as of 20-Jan-2022
HD Live streaming from Space Station
objects crossing your sky now

UFO 1 (USA 98)

Track UFO 1 (USA 98) now!
UFO 1 (USA 98) is classified as:


NORAD ID: 22563
Int'l Code: 1993-015A
Perigee: 36,054.1 km
Apogee: 36,108.8 km
Inclination: 21.9 °
Period: 1,450.8 minutes
Semi major axis: 42452 km
RCS: 8.2516 m2 (large)
Launch date: March 25, 1993
Source: United States (US)
Launch site: AIR FORCE EASTERN TEST RANGE (AFETR)
aabbcc
Your satellite tracking list
Your tracking list is empty




NASA's NSSDC Master Catalog

Two Line Element Set (TLE):
1 22563U 93015A   22019.01887806 -.00000231  00000-0  00000-0 0  9995
2 22563  21.9238  98.4024 0006450 229.0753 125.9577  0.99254246108719
Source of the keplerian elements: AFSPC